TimeMDT,TemperatureF,Dew PointF,Humidity,Sea Level PressureIn,VisibilityMPH,Wind Direction,Wind SpeedMPH,Gust SpeedMPH,PrecipitationIn,Events,Conditions,WindDirDegrees,DateUTC
12:48 AM,34.0,30.9,89,29.94,-9999.0,Calm,Calm,-,N/A,,Unknown,0,2012-10-31 06:48:00
1:48 AM,36.0,33.1,89,29.93,-9999.0,Calm,Calm,-,N/A,,Unknown,0,2012-10-31 07:48:00
2:48 AM,35.1,32.0,89,29.94,-9999.0,Calm,Calm,-,N/A,,Unknown,0,2012-10-31 08:48:00
3:48 AM,35.1,32.0,89,29.97,-9999.0,West,4.6,-,N/A,,Unknown,270,2012-10-31 09:48:00
4:48 AM,37.0,34.0,89,29.99,-9999.0,West,8.1,-,N/A,,Unknown,280,2012-10-31 10:48:00
5:48 AM,41.0,37.0,86,30.02,-9999.0,West,6.9,-,N/A,,Unknown,260,2012-10-31 11:48:00
6:48 AM,43.0,39.0,86,30.06,-9999.0,North,6.9,-,N/A,,Unknown,10,2012-10-31 12:48:00
7:48 AM,41.0,39.0,93,30.09,-9999.0,North,11.5,-,N/A,,Unknown,360,2012-10-31 13:48:00
8:48 AM,39.0,36.0,89,30.13,-9999.0,North,8.1,-,N/A,,Unknown,10,2012-10-31 14:48:00
9:48 AM,39.0,35.1,86,30.16,-9999.0,North,9.2,-,N/A,,Unknown,360,2012-10-31 15:48:00
10:48 AM,37.9,34.0,86,30.19,-9999.0,NNE,10.4,-,N/A,,Unknown,30,2012-10-31 16:48:00
11:48 AM,39.0,34.0,82,30.20,-9999.0,NNE,11.5,-,N/A,,Unknown,20,2012-10-31 17:48:00
12:48 PM,39.9,35.1,83,30.17,-9999.0,NE,8.1,-,N/A,,Unknown,40,2012-10-31 18:48:00
1:48 PM,41.0,35.1,79,30.17,-9999.0,ENE,8.1,-,N/A,,Unknown,60,2012-10-31 19:48:00
2:48 PM,42.1,35.1,76,30.15,-9999.0,East,6.9,-,N/A,,Unknown,80,2012-10-31 20:48:00
3:48 PM,42.1,35.1,76,30.14,-9999.0,East,9.2,-,N/A,,Unknown,80,2012-10-31 21:48:00
4:48 PM,43.0,35.1,74,30.12,-9999.0,East,12.7,-,N/A,,Unknown,90,2012-10-31 22:48:00
5:48 PM,39.9,34.0,79,30.12,-9999.0,East,5.8,-,N/A,,Unknown,90,2012-10-31 23:48:00
6:48 PM,36.0,33.1,89,30.13,-9999.0,ENE,6.9,-,N/A,,Unknown,70,2012-11-01 00:48:00
7:48 PM,35.1,32.0,89,30.12,-9999.0,East,6.9,-,N/A,,Unknown,90,2012-11-01 01:48:00
8:48 PM,36.0,33.1,89,30.10,-9999.0,East,11.5,-,N/A,,Unknown,90,2012-11-01 02:48:00
9:48 PM,35.1,33.1,92,30.09,-9999.0,East,13.8,-,N/A,,Unknown,90,2012-11-01 03:48:00
10:48 PM,35.1,33.1,92,30.07,-9999.0,East,11.5,-,N/A,,Unknown,100,2012-11-01 04:48:00
11:48 PM,35.1,34.0,96,30.06,-9999.0,East,12.7,-,N/A,,Unknown,100,2012-11-01 05:48:00